Wind_Speed
38 38 39 39 39 40 42 43 44 44 45 45 45 43 40 41 42 40 39 38 37 35 35 35 34 34 34 34 33 33 33 33 34 35 35 35 36 36 37 37 37 36 35 34
38 37 36 36 38 39 40 40 41 42 44 44 44 43 40 40 41 40 40 38 37 37 36 36 35 35 35 35 35 35 35 35 36 37 37 39 40 40 40 39 39 38 37 37
35 34 34 35 35 36 37 37 38 39 40 41 42 41 39 39 40 40 39 38 38 37 37 37 37 37 37 37 37 38 38 39 39 40 41 41 42 42 41 40 39 39 39 39
34 33 33 32 32 32 33 33 34 35 37 38 39 38 35 36 37 37 37 37 37 38 38 38 39 39 39 39 40 41 42 43 43 44 44 44 44 44 43 42 42 42 42 42
32 32 31 30 30 30 30 30 30 32 33 34 35 36 31 32 33 34 34 36 37 38 39 39 40 40 41 42 43 44 45 46 47 48 48 48 47 47 46 46 45 44 44 44
30 30 29 29 28 28 27 27 27 28 29 30 29 32 29 28 30 31 33 34 36 37 39 40 41 42 44 45 47 48 49 50 51 52 52 52 52 50 49 49 48 47 47 46
29 28 28 27 27 26 25 25 25 25 26 25 25 27 26 26 28 29 31 34 36 38 40 42 43 45 46 48 49 51 52 53 54 54 54 54 54 53 52 51 51 50 48 47
28 27 27 26 25 24 23 24 24 23 23 22 23 24 24 25 26 28 31 34 36 39 41 43 45 47 48 50 52 53 53 54 54 54 54 55 54 54 53 52 51 50 49 48
27 26 25 25 24 23 23 22 21 21 21 21 22 22 23 24 26 29 31 34 36 39 41 43 45 47 49 50 52 53 54 54 55 55 54 54 54 53 53 52 52 51 50 49
26 25 25 23 23 22 21 21 21 20 20 20 20 20 22 24 27 29 31 33 35 38 40 42 44 45 47 49 51 52 53 54 54 54 54 54 53 53 52 52 52 51 50 50
24 24 23 23 22 21 20 20 20 19 20 20 20 19 22 24 26 28 30 32 33 35 36 38 41 43 46 48 50 52 53 53 53 53 52 52 52 51 50 49 50 50 50 50
24 23 23 22 22 21 20 19 19 20 19 19 19 19 21 23 25 27 29 30 31 33 35 37 39 42 44 46 48 50 51 52 52 52 51 50 50 49 48 46 46 48 48 48
22 23 22 22 21 20 19 19 19 20 19 19 18 17 21 23 25 26 27 27 29 31 34 36 38 41 43 44 45 46 46 46 47 48 49 49 48 48 46 45 44 44 45 45
21 22 22 21 20 19 19 19 19 19 19 18 17 17 20 22 23 23 24 26 27 30 32 34 36 39 40 40 40 39 38 38 38 41 43 45 45 45 44 43 41 41 42 42
20 20 20 20 19 19 18 19 19 19 18 17 16 17 19 21 21 22 22 24 25 27 29 30 33 34 35 34 33 31 29 28 28 31 35 38 39 40 40 38 37 37 37 37
19 19 19 19 18 18 17 18 18 17 17 16 15 15 17 17 18 18 19 21 22 23 24 26 28 29 28 27 25 22 18 18 20 24 28 31 33 34 34 33 32 32 32 32
18 18 18 18 17 17 16 17 16 16 15 15 13 14 15 14 15 16 17 18 19 20 21 23 23 23 22 20 16 12 11 12 16 20 23 25 27 28 29 29 27 27 27 27
17 17 17 17 16 16 15 15 15 14 14 14 13 13 13 12 13 14 15 15 16 16 17 18 19 18 16 12 8 5 5 8 12 17 20 22 23 24 25 25 23 23 24 26
16 16 16 16 16 15 15 14 14 13 13 13 12 12 11 11 12 12 12 12 13 13 13 14 15 13 11 7 2 3 5 9 13 16 18 20 21 22 22 21 22 22 23 24
15 15 15 15 15 14 14 14 13 13 13 12 11 10 10 10 10 10 11 11 11 10 10 10 10 9 8 5 4 6 8 11 14 16 18 18 18 19 19 20 20 20 21 24
14 14 14 14 14 13 14 13 13 12 12 10 10 9 9 9 9 9 9 9 9 9 9 8 6 5 5 5 6 8 9 11 13 13 14 14 15 15 16 17 18 20 21 24
14 14 14 14 14 14 13 13 13 12 12 11 9 8 8 8 8 8 8 8 8 7 6 5 4 3 3 4 5 6 8 9 10 10 10 10 11 12 14 16 18 20 22 25
14 14 14 14 14 14 14 13 13 12 12 11 9 8 8 8 8 8 7 7 6 6 4 3 3 2 2 3 4 4 5 6 7 7 8 9 10 11 14 15 18 21 24 27
14 15 14 14 14 14 14 13 13 12 12 11 10 9 8 8 8 7 7 6 5 5 4 3 2 1 1 1 2 2 2 3 4 5 6 8 9 11 14 17 20 22 25 27
15 15 15 14 15 14 14 14 13 13 13 12 11 10 9 9 8 7 6 6 5 5 4 4 3 2 1 1 1 1 2 3 4 5 7 9 11 13 15 18 20 23 26 29
16 15 15 15 16 15 14 15 14 14 14 13 12 11 10 9 8 8 8 7 6 6 5 5 4 4 3 4 4 4 5 5 6 7 9 11 13 16 18 20 23 25 28 30
Wind_Direction
215 217 219 221 223 225 227 228 230 231 232 234 235 236 235 235 237 239 240 242 243 244 244 244 244 244 245 247 249 251 253 255 256 258 260 261 261 261 261 263 264 266 268 269
213 216 217 219 222 225 227 229 231 232 233 235 236 237 236 236 237 239 240 241 241 242 243 245 245 246 247 249 251 252 254 255 257 258 259 260 260 261 262 264 265 266 267 267
212 214 216 219 222 225 228 229 231 233 234 235 236 236 237 237 238 239 241 241 241 242 243 244 246 247 249 250 252 254 255 256 257 258 259 260 261 263 263 264 265 264 264 265
208 210 213 217 220 223 226 227 229 231 233 235 236 236 235 238 239 240 241 242 243 244 245 246 248 250 251 253 254 255 257 258 259 260 260 261 261 263 263 262 261 261 262 263
206 208 211 214 216 220 223 224 226 229 232 234 236 238 231 236 239 240 241 244 245 246 248 250 252 254 256 257 258 259 260 260 261 261 262 261 261 261 261 261 261 261 261 262
204 206 208 210 212 215 217 220 222 225 228 231 233 238 235 234 237 240 243 245 248 250 252 255 257 259 260 261 262 262 262 263 263 262 262 262 261 260 259 259 259 259 260 260
201 203 204 206 209 210 212 215 218 221 225 228 229 237 239 238 239 242 245 248 251 253 256 258 260 262 264 264 265 264 264 263 263 262 261 261 260 259 258 257 256 256 257 259
199 200 202 204 206 206 207 211 215 218 222 225 227 234 241 245 247 249 252 254 256 259 261 263 265 266 266 266 266 265 264 263 262 261 260 259 258 257 255 254 254 254 254 256
197 198 199 200 201 202 204 209 213 219 222 226 230 236 245 252 257 259 260 262 264 266 267 269 270 270 269 268 267 266 265 263 261 259 258 256 256 255 254 253 252 252 252 253
195 196 197 198 200 202 206 210 215 221 227 232 236 245 255 260 265 267 269 271 271 272 273 274 273 272 272 271 270 268 266 264 261 258 255 254 253 252 251 251 250 249 249 250
194 197 198 201 203 206 210 216 222 229 236 243 249 256 262 267 270 272 274 275 275 276 276 276 276 276 276 276 274 272 269 265 261 258 254 251 250 249 248 248 247 247 246 248
196 199 202 205 208 212 217 224 232 240 246 253 260 268 270 272 273 275 275 277 278 280 281 282 282 282 282 280 278 276 272 266 261 255 251 247 246 245 244 244 244 244 245 246
200 203 206 211 215 220 226 233 240 246 251 256 263 268 270 273 275 276 278 281 284 287 288 289 289 289 288 286 282 279 274 266 258 250 244 241 240 239 240 240 241 242 243 245
203 207 212 218 221 226 231 238 243 249 253 259 263 264 268 274 276 278 282 285 289 291 294 295 296 295 294 291 288 283 275 265 255 246 239 234 233 233 235 236 237 239 240 242
206 210 216 221 224 228 232 238 244 250 256 261 261 263 266 273 278 280 283 287 291 296 299 301 303 303 301 297 293 287 274 260 247 237 231 228 227 227 229 230 233 235 238 241
210 215 220 224 228 230 232 239 245 251 256 259 259 263 270 276 280 283 286 288 294 302 306 308 310 311 309 302 295 287 269 251 235 224 221 220 220 220 222 224 227 231 235 239
214 218 222 229 233 234 237 240 245 251 255 260 260 263 271 277 281 288 293 297 302 308 313 317 320 321 319 312 300 280 257 232 217 211 210 210 210 211 214 216 220 226 231 237
217 221 227 232 236 241 241 242 248 253 257 261 261 266 270 274 285 293 299 305 309 313 319 324 329 329 328 324 309 272 229 206 197 194 194 196 196 200 204 207 214 222 230 237
221 227 231 232 237 240 240 243 249 253 259 260 261 264 267 273 286 296 305 311 314 317 324 330 336 340 344 348 3 140 150 166 174 177 180 179 183 189 195 204 217 226 234 244
224 229 231 233 237 235 238 242 248 251 254 255 256 259 263 271 283 295 305 311 314 318 323 332 341 354 9 31 84 121 134 148 158 164 169 173 179 189 200 209 221 233 245 254
228 230 232 232 232 230 235 241 245 247 246 248 253 257 265 276 283 292 304 309 310 317 320 328 341 6 31 66 102 121 130 138 149 157 162 171 181 190 205 219 232 246 256 263
230 230 230 230 229 230 234 240 242 242 241 243 250 257 266 277 283 291 300 305 309 316 323 335 350 8 45 78 118 130 134 140 149 160 167 181 194 209 225 237 247 257 265 272
234 232 231 231 232 233 235 237 239 238 237 240 246 257 266 271 281 289 296 299 301 310 310 337 1 23 61 89 108 135 154 164 170 181 195 208 221 235 245 253 261 270 276 281
235 235 233 233 235 235 234 234 234 234 234 237 245 257 264 265 274 285 284 289 292 290 296 300 328 359 40 81 131 130 143 178 207 222 230 236 248 259 267 272 278 282 286 290
236 235 233 232 233 234 232 231 231 233 234 236 245 255 262 265 266 274 279 280 279 277 284 280 277 273 260 258 263 243 231 245 249 254 262 268 273 279 284 287 290 292 295 298
236 235 234 233 233 231 230 232 231 231 233 239 246 250 255 258 260 265 270 270 267 264 271 270 269 267 270 274 273 274 277 280 283 286 287 289 291 294 296 298 299 301 302 304
Height
5649 5657 5664 5671 5676 5681 5687 5692 5698 5704 5709 5714 5719 5724 5730 5734 5737 5740 5744 5747 5750 5752 5754 5756 5758 5760 5762 5764 5766 5767 5769 5770 5771 5772 5773 5774 5775 5775 5776 5776 5777 5777 5778 5778
5645 5652 5658 5663 5669 5674 5680 5686 5692 5697 5702 5707 5712 5717 5723 5726 5729 5732 5736 5739 5742 5744 5746 5749 5750 5752 5754 5756 5757 5759 5760 5762 5763 5764 5764 5765 5765 5766 5767 5768 5769 5770 5770 5770
5640 5648 5653 5658 5664 5669 5675 5681 5686 5691 5695 5700 5705 5711 5716 5719 5721 5725 5728 5731 5734 5737 5739 5741 5742 5744 5746 5747 5749 5750 5751 5752 5754 5754 5755 5755 5755 5756 5758 5760 5761 5761 5761 5761
5635 5642 5648 5654 5659 5664 5670 5675 5680 5684 5689 5694 5699 5704 5709 5711 5714 5718 5721 5723 5726 5728 5731 5732 5734 5735 5737 5738 5739 5740 5741 5742 5743 5744 5745 5746 5746 5747 5749 5750 5751 5751 5751 5752
5632 5638 5643 5649 5655 5660 5665 5670 5674 5679 5683 5688 5692 5696 5704 5705 5707 5710 5713 5715 5718 5720 5722 5724 5725 5726 5727 5728 5729 5730 5731 5731 5732 5733 5734 5735 5736 5738 5739 5739 5740 5741 5742 5742
5628 5634 5640 5645 5650 5656 5660 5665 5670 5674 5678 5684 5687 5690 5696 5699 5701 5703 5706 5708 5710 5712 5713 5715 5716 5716 5717 5717 5718 5718 5718 5719 5719 5720 5721 5722 5724 5725 5727 5728 5729 5730 5731 5732
5624 5631 5636 5641 5646 5652 5657 5662 5666 5669 5673 5679 5682 5685 5689 5692 5694 5696 5699 5700 5702 5703 5704 5705 5706 5706 5706 5705 5705 5704 5705 5705 5705 5706 5707 5708 5710 5712 5714 5715 5717 5719 5720 5722
5623 5629 5634 5639 5644 5649 5654 5658 5663 5667 5670 5674 5677 5680 5683 5685 5687 5689 5691 5692 5693 5694 5694 5695 5694 5694 5693 5692 5691 5690 5689 5690 5690 5690 5692 5694 5696 5698 5700 5702 5704 5707 5709 5711
5621 5627 5632 5637 5641 5647 5651 5655 5659 5663 5666 5669 5672 5675 5677 5678 5679 5681 5682 5683 5684 5684 5684 5683 5682 5680 5678 5677 5675 5674 5674 5674 5674 5675 5676 5678 5681 5683 5686 5688 5691 5694 5697 5700
5619 5625 5630 5635 5639 5644 5648 5652 5656 5659 5661 5665 5668 5670 5671 5671 5672 5673 5674 5674 5674 5673 5672 5670 5669 5667 5664 5662 5660 5658 5657 5657 5657 5658 5660 5663 5666 5669 5672 5675 5678 5682 5685 5688
5618 5624 5629 5633 5637 5641 5646 5649 5651 5654 5657 5660 5662 5666 5665 5664 5665 5665 5665 5664 5663 5662 5661 5659 5656 5653 5650 5647 5643 5641 5639 5639 5639 5641 5643 5647 5651 5654 5658 5662 5665 5669 5673 5676
5617 5622 5626 5631 5635 5638 5642 5645 5648 5651 5653 5654 5656 5661 5658 5657 5657 5656 5656 5655 5654 5652 5649 5647 5643 5640 5635 5631 5627 5623 5621 5620 5620 5622 5626 5631 5635 5641 5645 5649 5653 5658 5662 5666
5616 5621 5624 5628 5634 5636 5639 5641 5643 5646 5648 5649 5651 5655 5651 5650 5649 5649 5648 5647 5645 5642 5639 5635 5631 5626 5620 5615 5610 5605 5602 5601 5602 5604 5609 5615 5621 5627 5633 5638 5643 5647 5652 5656
5614 5618 5623 5627 5630 5633 5635 5637 5639 5641 5642 5644 5646 5647 5645 5643 5643 5642 5641 5639 5636 5633 5629 5625 5619 5613 5606 5600 5594 5589 5585 5584 5585 5589 5594 5600 5608 5615 5622 5628 5634 5639 5643 5648
5612 5616 5619 5623 5626 5629 5631 5633 5634 5636 5637 5639 5641 5640 5639 5638 5637 5636 5634 5632 5629 5626 5621 5615 5609 5602 5595 5588 5582 5576 5573 5572 5574 5577 5583 5590 5598 5606 5613 5620 5626 5631 5636 5640
5610 5613 5616 5619 5622 5624 5627 5628 5630 5631 5632 5633 5634 5635 5634 5633 5631 5630 5628 5626 5622 5618 5613 5607 5601 5593 5586 5579 5574 5569 5566 5566 5567 5572 5577 5584 5592 5599 5607 5614 5620 5625 5630 5634
5607 5611 5613 5616 5618 5620 5623 5624 5625 5626 5627 5628 5629 5630 5629 5628 5626 5624 5622 5620 5616 5612 5607 5601 5595 5588 5581 5574 5569 5565 5564 5564 5566 5570 5575 5582 5589 5596 5603 5609 5615 5620 5625 5629
5605 5607 5610 5612 5615 5617 5621 5620 5621 5622 5623 5624 5624 5624 5624 5623 5621 5620 5617 5615 5611 5607 5603 5598 5592 5586 5579 5573 5569 5566 5565 5565 5568 5571 5576 5582 5588 5594 5600 5606 5612 5616 5620 5624
5603 5605 5607 5609 5610 5613 5615 5616 5617 5618 5619 5619 5620 5620 5619 5618 5618 5616 5613 5611 5608 5604 5600 5596 5591 5585 5580 5575 5571 5569 5568 5569 5571 5574 5578 5583 5588 5594 5599 5604 5609 5613 5616 5618
5600 5602 5604 5605 5607 5609 5612 5612 5612 5615 5615 5615 5615 5616 5615 5615 5615 5613 5610 5608 5605 5602 5599 5595 5591 5587 5582 5578 5575 5574 5573 5574 5576 5578 5581 5585 5589 5594 5598 5603 5607 5610 5612 5613
5597 5598 5600 5602 5603 5606 5608 5608 5609 5612 5613 5612 5612 5612 5612 5611 5611 5610 5607 5605 5603 5600 5597 5594 5591 5588 5585 5582 5580 5579 5579 5579 5581 5583 5585 5588 5592 5595 5599 5602 5604 5606 5607 5607
5594 5595 5597 5598 5600 5604 5603 5604 5606 5607 5608 5608 5609 5609 5609 5608 5607 5606 5605 5603 5601 5599 5596 5594 5592 5590 5587 5586 5584 5583 5583 5584 5585 5587 5589 5591 5594 5596 5598 5600 5601 5602 5602 5601
5591 5593 5594 5596 5599 5599 5599 5600 5602 5603 5604 5605 5605 5606 5606 5605 5605 5604 5603 5601 5599 5598 5596 5594 5592 5591 5589 5588 5587 5587 5587 5588 5588 5590 5591 5593 5594 5595 5596 5597 5598 5597 5596 5595
5587 5588 5590 5592 5593 5594 5595 5596 5598 5599 5600 5601 5602 5603 5603 5603 5602 5601 5601 5599 5598 5596 5595 5594 5593 5592 5591 5590 5589 5589 5589 5590 5590 5591 5592 5592 5593 5594 5594 5594 5593 5592 5590 5588
5583 5584 5586 5587 5589 5590 5592 5593 5595 5596 5597 5598 5599 5600 5600 5600 5599 5599 5598 5597 5596 5595 5594 5593 5592 5592 5591 5591 5590 5590 5590 5590 5590 5591 5591 5591 5591 5591 5590 5589 5588 5586 5584 5580
5579 5581 5582 5584 5585 5587 5588 5589 5591 5592 5593 5595 5595 5596 5596 5597 5597 5597 5596 5595 5595 5594 5593 5592 5592 5592 5591 5591 5590 5590 5590 5590 5590 5590 5589 5589 5588 5587 5586 5584 5582 5579 5576 5572